COSMOS 1809

Satellite information

Favourite Embed

Satellite Type and Status

PAYLOADIN ORBIT

Key statistics

Satellite COSMOS 1809 at a glance.

Uptime

14240

Days in orbit

Revolutions

≈ 13.8

Per day

Orbit

LEO

Low Earth Orbit

Inclination

82.5

Latest

Satellite identification and parameters

Extended collection of information and parameters for COSMOS 1809.

Object identification

Identified? True

Debris? False

Object name: COSMOS 1809

International designator: 1986-101A

Object number (NORAD): 17241

Object ID (CCSDS): 17241

Country: COMMONWEALTH OF INDEPENDENT STATES (CIS)

Current information (Y/N): Y

RCS size: LARGE

Orbital parameters

Period: 104.011 minutes

Inclination: 82.5308 deg

SMA: 7326.212 km

Apoapsis: 958.757 km

Periapsis: 937.398 km

RAAN: 69.5001 deg

Eccentricy: 0.00145772

Argument of periapsis: 329.4172 deg

Mean anomaly: 93.3027 deg

Mean motion: 13.84469926 rev/day

Mean motion (dot): 0.00000111 rev/day2

B* drag term: 0.000085653966 1/REarth

Two-line elements (TLE)

Creation date: Dec. 12, 2025, 10:14 a.m.

Reference frame: TEME

Reference center: EARTH

Epoch: Dec. 12, 2025, 7:48 a.m. UTC

TLE line 0: 0 COSMOS 1809

TLE line 1: 1 17241U 86101A 25346.32513973 .00000111 00000-0 85654-4 0 9999

TLE line 2: 2 17241 82.5308 69.5001 0014577 329.4172 93.3027 13.84469926968971

Live tracking on map

Real-time ground track for satellite COSMOS 1809.

In-orbit conjunctions

A list of the most updated potential collisions computed for object COSMOS 1809.

Target Orbit TCA Probability of collision Miss distance Type
COSMOS 2251 DEB LEO 2024-09-07 02:41:15 0.0003170453 231.0 (m) DEBRIS
FENGYUN 1C DEB SSO 2024-08-25 15:39:09 0.0003667283 639.0 (m) DEBRIS

Associated space launch

Ionospheric research satellite

COSMOS 1809 was lifted into orbit during the mission ‘Tsiklon-3 | Ionozond-E’, on board a Tsiklon-3 space rocket.

The launch took place on Dec. 18, 1986, 8 a.m. from 32/2.

For more information about the launch, click the button.

Launch to space Tsiklon-3 | Ionozond-E
Tsiklon-3 | Ionozond-E

Agency: N/A

Status: Launch Successful

Launch date: Dec. 18, 1986, 8 a.m. UTC

Rocket: Tsiklon-3

Launch pad: 32/2

Location: Plesetsk Cosmodrome, Russian Federation

...

Latest news about this satellite

There are no fresh news available about this satellite. Check back as we update our databases every day.


Newsletter sign-up

Weekly statistics, charts and insights to help you stay on top of the space industry.